Yiewsley, United Kingdom

4:42 PM GMT on February 19, 2018 (GMT +0000)
Yiewsley

Weather History for 03772 - March, 2013

Change the Weather History Date:

Friday, March 29, 2013

  Actual Average Record
Temperature  
Mean Temperature 36 °F -  
Max Temperature 45 °F 56 °F - ()
Min Temperature 28 °F 41 °F - ()
Degree Days  
Heating Degree Days 28    
Moisture  
Dew Point 23 °F    
Average Humidity 59    
Maximum Humidity 80    
Minimum Humidity 28    
Precipitation  
Precipitation 0.00 in - - ()
Sea Level Pressure  
Sea Level Pressure 29.85 in    
Wind  
Wind Speed 6 mph ()    
Max Wind Speed 14 mph    
Max Gust Speed -    
Visibility 7.5 miles    
Events      
T = Trace of Precipitation, MM = Missing Value Source: Averaged Metar Reports

Daily Weather History Graph

Daily Weather History Graph

Search for Another Location

Airport or City:

Trip Planner

Search our weather history database for the weather conditions in past years. The results will help you decide how hot, cold, wet, or windy it might be!

Date:

Astronomy

Mar. 29, 2013 Rise Set
Actual Time 5:43 AM GMT 6:30 PM GMT
Civil Twilight 5:10 AM GMT 7:04 PM GMT
Nautical Twilight 4:29 AM GMT 7:44 PM GMT
Astronomical Twilight 3:46 AM GMT 8:27 PM GMT
Moon 9:36 PM GMT (3/29) 6:23 AM GMT (3/29)
Length of Visible Light 13h 53m
Length of Day
12h 46m
Waning Gibbous, 94% of the Moon is Illuminated
Mar 29
Waning Gibbous
Apr 3
Last Quarter
Apr 10
New
Apr 18
First Quarter
Apr 25
Full

Hourly Weather History & Observations

Time (GMT) Temp. Windchill Dew Point Humidity Pressure Visibility Wind Dir Wind Speed Gust Speed Precip Events Conditions
12:20 AM 32.0 °F 27.5 °F 23.0 °F 69% 29.92 in 6.2 mi NNE 4.6 mph - N/A   Partly Cloudy
12:50 AM 32.0 °F 28.7 °F 23.0 °F 69% 29.92 in - Variable 3.5 mph - N/A   Clear
1:20 AM 30.2 °F 26.7 °F 23.0 °F 75% 29.92 in 6.2 mi Variable 3.5 mph - N/A   Unknown
1:50 AM 30.2 °F 26.7 °F 23.0 °F 75% 29.92 in 6.2 mi Variable 3.5 mph - N/A   Unknown
2:20 AM 30.2 °F - 23.0 °F 75% 29.92 in 6.2 mi North 2.3 mph - N/A   Unknown
2:50 AM 28 °F - 23 °F 74% 29.91 in 11 mi North 2.3 mph - -   Partly Cloudy
2:50 AM 30.2 °F - 23.0 °F 75% 29.89 in 6.2 mi North 2.3 mph - N/A   Mostly Cloudy
3:20 AM 30.2 °F - 23.0 °F 75% 29.89 in 6.2 mi Calm Calm - N/A   Mostly Cloudy
3:50 AM 28.4 °F 24.6 °F 23.0 °F 80% 29.89 in 6.2 mi North 3.5 mph - N/A   Scattered Clouds
4:20 AM 28.4 °F 24.6 °F 23.0 °F 80% 29.89 in 6.2 mi Variable 3.5 mph - N/A   Mostly Cloudy
4:50 AM 30.2 °F - 24.8 °F 80% 29.89 in 6.2 mi Variable 2.3 mph - N/A   Mostly Cloudy
5:20 AM 32.0 °F 26.4 °F 24.8 °F 75% 29.89 in 6.2 mi ENE 5.8 mph - N/A   Mostly Cloudy
5:50 AM 32 °F - 24 °F 64% 29.90 in 12 mi NE 5.8 mph - -  
5:50 AM 32.0 °F 26.4 °F 24.8 °F 75% 29.89 in 6.2 mi NE 5.8 mph - N/A   Mostly Cloudy
6:20 AM 32.0 °F 27.5 °F 24.8 °F 75% 29.89 in 6.2 mi NNE 4.6 mph - N/A   Mostly Cloudy
6:50 AM 32.0 °F 27.5 °F 24.8 °F 75% 29.89 in 6.2 mi NE 4.6 mph - N/A   Mostly Cloudy
7:20 AM 33.8 °F 29.6 °F 24.8 °F 70% 29.89 in 6.2 mi NE 4.6 mph - N/A   Mostly Cloudy
7:50 AM 35.6 °F 29.9 °F 26.6 °F 70% 29.89 in 6.2 mi NE 6.9 mph - N/A   Scattered Clouds
8:20 AM 37.4 °F 30.8 °F 26.6 °F 65% 29.86 in 6.2 mi ENE 9.2 mph - N/A   Partly Cloudy
8:50 AM 39 °F - 26 °F 47% 29.87 in 14 mi ENE 10.4 mph - -  
8:50 AM 39.2 °F 31.6 °F 24.8 °F 56% 29.86 in 6.2 mi ENE 12.7 mph - N/A   Partly Cloudy
9:20 AM 39.2 °F 31.2 °F 24.8 °F 56% 29.86 in 6.2 mi ENE 13.8 mph - N/A   Partly Cloudy
9:50 AM 41.0 °F 33.9 °F 23.0 °F 49% 29.86 in 6.2 mi East 12.7 mph - N/A   Scattered Clouds
10:20 AM 41.0 °F 34.3 °F 23.0 °F 49% 29.86 in 6.2 mi ENE 11.5 mph - N/A   Scattered Clouds
10:50 AM 42.8 °F 36.2 °F 23.0 °F 46% 29.86 in 6.2 mi East 12.7 mph - N/A   Mostly Cloudy
11:20 AM 42.8 °F 37.5 °F 21.2 °F 42% 29.86 in 6.2 mi NE 9.2 mph - N/A   Mostly Cloudy
11:50 AM 42 °F - 20 °F 28% 29.84 in 19 mi ENE 10.4 mph - -   Mostly Cloudy
11:50 AM 41.0 °F 33.9 °F 19.4 °F 42% 29.83 in 6.2 mi East 12.7 mph - N/A   Scattered Clouds
12:20 PM 42.8 °F 36.6 °F 21.2 °F 42% 29.83 in 6.2 mi ENE 11.5 mph - N/A   Mostly Cloudy
12:50 PM 41.0 °F 34.3 °F 19.4 °F 42% 29.83 in 6.2 mi ENE 11.5 mph - N/A   Mostly Cloudy
1:20 PM 44.6 °F 38.1 °F 19.4 °F 37% 29.83 in 6.2 mi East 13.8 mph - N/A   Scattered Clouds
1:50 PM 44.6 °F 39.7 °F 21.2 °F 39% 29.80 in 6.2 mi East 9.2 mph - N/A   Scattered Clouds
2:20 PM 44.6 °F 38.8 °F 21.2 °F 39% 29.80 in 6.2 mi ENE 11.5 mph - N/A   Partly Cloudy
2:50 PM 42 °F - 21 °F 30% 29.81 in 19 mi NE 12.7 mph - -   Overcast
2:50 PM 41.0 °F 34.7 °F 21.2 °F 45% 29.80 in 6.2 mi ENE 10.4 mph - N/A   Mostly Cloudy
3:20 PM 41.0 °F 34.3 °F 19.4 °F 42% 29.80 in 6.2 mi ENE 11.5 mph - N/A   Mostly Cloudy
3:50 PM 41.0 °F 34.3 °F 21.2 °F 45% 29.80 in 6.2 mi ENE 11.5 mph - N/A   Mostly Cloudy
4:20 PM 39.2 °F 32.0 °F 23.0 °F 52% 29.80 in 6.2 mi ENE 11.5 mph - N/A   Mostly Cloudy
4:50 PM 39.2 °F 32.5 °F 21.2 °F 49% 29.80 in 6.2 mi East 10.4 mph - N/A   Mostly Cloudy
5:20 PM 39.2 °F 32.5 °F 23.0 °F 52% 29.80 in 6.2 mi East 10.4 mph - N/A   Mostly Cloudy
5:50 PM 39 °F - 24 °F 42% 29.81 in 17 mi ENE 10.4 mph - -   Overcast
5:50 PM 39.2 °F 32.0 °F 23.0 °F 52% 29.80 in 6.2 mi ENE 11.5 mph - N/A   Mostly Cloudy
6:20 PM 37.4 °F 32.1 °F 23.0 °F 56% 29.80 in 6.2 mi East 6.9 mph - N/A   Mostly Cloudy
6:50 PM 37.4 °F 29.3 °F 24.8 °F 60% 29.80 in 6.2 mi East 12.7 mph - N/A   Scattered Clouds
7:20 PM 37.4 °F 29.8 °F 24.8 °F 60% 29.80 in 6.2 mi East 11.5 mph - N/A   Mostly Cloudy
7:50 PM 35.6 °F 28.6 °F 24.8 °F 65% 29.80 in 6.2 mi ENE 9.2 mph - N/A   Scattered Clouds
8:20 PM 35.6 °F 29.9 °F 24.8 °F 65% 29.80 in 6.2 mi ENE 6.9 mph - N/A   Partly Cloudy
8:50 PM 36 °F - 25 °F 53% 29.83 in 16 mi NE 5.8 mph - -   Mostly Cloudy
8:50 PM 35.6 °F 29.9 °F 24.8 °F 65% 29.80 in 6.2 mi ENE 6.9 mph - N/A   Scattered Clouds
9:20 PM 35.6 °F 29.2 °F 24.8 °F 65% 29.83 in 6.2 mi ENE 8.1 mph - N/A   Mostly Cloudy
9:50 PM 35.6 °F 28.6 °F 24.8 °F 65% 29.83 in 6.2 mi ENE 9.2 mph - N/A   Mostly Cloudy
10:20 PM 33.8 °F 26.4 °F 24.8 °F 70% 29.83 in 6.2 mi ENE 9.2 mph - N/A   Scattered Clouds
10:50 PM 33.8 °F 27.7 °F 24.8 °F 70% 29.83 in 6.2 mi ENE 6.9 mph - N/A   Mostly Cloudy
11:20 PM 33.8 °F 29.6 °F 24.8 °F 70% 29.83 in 6.2 mi ENE 4.6 mph - N/A   Mostly Cloudy
11:50 PM 35 °F - 26 °F 60% 29.81 in 12 mi NE 6.9 mph - -   Overcast
11:50 PM 33.8 °F 28.6 °F 26.6 °F 75% 29.80 in 6.2 mi NE 5.8 mph - N/A   Mostly Cloudy